Regional Weather Roundup
Issued by NWS Wakefield, VA

Home | Current Version | Previous Version | Text Only | Print | Product List | Glossary On
Versions: 1 2 3 4 5 6 7 8 9 10 11 12 13 14 15 16 17 18 19 20 21 22 23 24 25 26 27
000
ASUS41 KAKQ 281215
RWRAKQ

REGIONAL WEATHER ROUNDUP
NATIONAL WEATHER SERVICE WAKEFIELD VA
800 AM EDT TUE MAR 28 2017

Note: "fair" indicates few or no clouds below 12,000 feet with no
significant weather and/or obstructions to visibility. * = Denotes
station may not report precipitation (e.g., rain,snow,etc.),
thunder or fog.

VAZ042-051-052>054-056-281300-
NORTHERN VIRGINIA

CITY           SKY/WX    TMP DP  RH WIND       PRES   REMARKS
WASH NATIONAL  PTSUNNY   63  58  83 S7        29.86R
DULLES         CLOUDY    56  55  97 NW3       29.85S FOG
FORT BELVOIR   CLOUDY    64  57  77 VRB3      29.86R
QUANTICO       CLOUDY    59  56  89 S9        29.87R THUNDER
FREDERICKSBRG* LGT RAIN  64  60  84 SW12G20   29.87R
STAFFORD*      CLOUDY    63  59  87 SW8G18    29.92R
WARRENTON      NOT AVBL
CULPEPER*      RAIN      62  60  95 SW7       29.89R
MANASSAS*        N/A    N/A N/A N/A S7        29.87R
LEESBURG*      CLOUDY    55  55 100 NE3       29.86S FOG
WINCHESTER     LGT RAIN  52  52 100 CALM      29.87R
FRONT ROYAL*   CLOUDY    55  55 100 CALM      29.86R
LURAY*         LGT RAIN  57  57 100 SW6       29.88R
$$

VAZ048-049-060>072-079>083-281300-
CENTRAL AND SOUTH CENTRAL VIRGINIA

CITY           SKY/WX    TMP DP  RH WIND       PRES   REMARKS
RICHMOND       TSTM      60  57  89 SW7       29.90R
CHESTERFIELD*  CLOUDY    61  43  51 SW5       29.93R
PETERSBURG*    TSTM      58  56  94 CALM      29.92S
HANOVER        LGT RAIN  62  56  80 S7        29.91R
TAPPAHANNOCK*  CLOUDY    62  50  65 S5        29.90R
QUINTON*       CLOUDY    62  56  82 SW5       29.90R
CHARLOTTSVILLE LGT RAIN  62  59  90 CALM      29.87F FOG
GORDONSVILLE*  CLOUDY    60  60 100 NW3       29.88S FOG
ORANGE*        HVY RAIN  61  59  94 SW12G17   29.91R
LOUISA*        LGT RAIN  64  63  94 SW5       29.88R
BUMPASS*       CLOUDY    61  60  99 W5G18     29.88R
FARMVILLE*     LGT RAIN  61  61 100 S6        29.89S
CREWE*         CLOUDY    60  60 100 S3        29.92R
FORT PICKETT*  PTSUNNY   59  56  88 SW5       29.92R
CHASE CITY*    CLOUDY    59  58  95 CALM      29.92S
CLARKSVILLE*   CLOUDY    59  59 100 CALM      29.92F
SOUTH HILL*    CLOUDY    59  58  96 SW3       29.99R
LAWRENCEVILLE* PTSUNNY   59  57  92 CALM      29.93R
EMPORIA*       CLOUDY    59  54  82 CALM      29.94R
$$

VAZ088>098-281300-
SOUTHEAST VIRGINIA

CITY           SKY/WX    TMP DP  RH WIND       PRES   REMARKS
NORFOLK        SUNNY     63  56  78 SW13      29.93R
VIRGINIA BEACH PTSUNNY   61  54  77 S9        29.93S
NORFOLK NAVAL  CLOUDY    63  55  75 S8        29.94S
WEST POINT*    CLOUDY    63  54  73 CALM      29.92R
SALUDA*        FAIR      62  56  81 S7        29.90R
NEWPORT NEWS   CLOUDY    63  56  78 SW13      29.92S
LANGLEY AFB    PTSUNNY   62  56  81 S9        29.92R
FORT EUSTIS    PTSUNNY   61  55  79 S5        29.90R
WILLIAMSBURG*  CLOUDY    63  55  77 S3        29.93R
HR EXEC AP*    FAIR      61  54  77 SW7       29.92S
FRANKLIN*      PTSUNNY   60  56  87 S6        29.94R
US460-WAKEFLD  CLOUDY    60  56  86 S6        29.93R
$$

VAZ020-022-025-037-045-281300-
WEST CENTRAL AND SOUTHWEST VIRGINIA

CITY           SKY/WX    TMP DP  RH WIND       PRES   REMARKS
STAUNTON*      LGT RAIN  57  55  95 S3        29.91F
WAYNESBORO*    CLOUDY    56  56 100 W6        29.90S
HOT SPRINGS VA LGT RAIN  50  50 100 W5        29.93S
LYNCHBURG      LGT RAIN  58  57  97 S5        29.92R
DANVILLE       LGT RAIN  58  58 100 CALM      29.91S
SOUTH BOSTON*  CLOUDY    59  58  96 CALM      29.92S
MARTINSVILLE   CLOUDY    57  56  97 CALM      29.95R
ROANOKE        LGT RAIN  58  58 100 CALM      29.93R
BLACKSBURG     CLOUDY    54  54 100 CALM      29.96R FOG
DUBLIN*        CLOUDY    55  55 100 CALM      29.94R FOG
MARION*        RAIN      53  52  96 CALM      29.96R VSB 1/2
HILLSVILLE*    FOG       53  53 100 CALM      29.93R VSB 1/2
RICHLANDS*     CLOUDY    53  53 100 SW8       29.94R FOG
WISE*          CLOUDY    54  54 100 W7        29.95R
ABINGDON*      CLOUDY    56  56 100 CALM      29.94R FOG
$$

MDZ021>025-VAZ099-100-281300-
SOUTHERN MARYLAND AND THE DELMARVA PENINSULA

CITY           SKY/WX    TMP DP  RH WIND       PRES   REMARKS
PATUXENT RIVER PTSUNNY   62  57  83 SW10      29.87S
BAY BRIDGE APT CLOUDY    57  54  88 S8        29.87R FOG
LEONARDTOWN    CLOUDY    63  54  72 SW8       29.89R
DOVER          PTSUNNY   60  60 100 S5        29.86S
GEORGETOWN     MOSUNNY   62  55  77 SW7       29.89S
EASTON         PTSUNNY   61  54  77 S6        29.91R
CAMBRIDGE      PTSUNNY   59  54  82 S8        29.88S
SALISBURY      CLOUDY    61  56  83 S9        29.89S
OCEAN CITY     CLOUDY    54  50  86 S8        29.91S
WALLOPS ISLAND CLOUDY    53  52  96 S13       29.92S
ACCOMACK*      SUNNY     58  54  88 S8        29.92S
$$

NCZ012>017-030>032-281300-
NORTH CENTRAL AND EASTERN NORTH CAROLINA

CITY           SKY/WX    TMP DP  RH WIND       PRES   REMARKS
ROANOKE RAPIDS FAIR      61  55  82 SW8       29.94S
RALEIGH        LGT RAIN  62  58  86 SW8       29.94F
ELIZABETH CITY SUNNY     61  57  87 S8        29.97R
AHOSKIE*         N/A     60  57  88 SW3       29.95R
EDENTON*       SUNNY     62  58  87 CALM      29.98R
CURRITUCK*     SUNNY     62  57  84 S6        29.97R
KILL DEVIL HLS NOT AVBL
MANTEO         PTSUNNY   60  58  93 SW9       29.99S
CAPE HATTERAS  CLOUDY    69  61  75 SW8       30.00R HAZE
TARBORO*       NOT AVBL
GOLDSBORO      CLOUDY    63  63 100 SW12      29.96R
WASHINGTON     CLOUDY    62  58  86 S6        29.98R
GREENVILLE     CLOUDY    63  59  88 SW8       29.99R
NEW BERN       CLOUDY    64  59  83 S7        30.00R
WILMINGTON     SUNNY     64  61  90 SW7       30.00R
$$

VAZ048-281300-
ELSEWHERE

CITY           SKY/WX    TMP DP  RH WIND       PRES   REMARKS
HARRISBURG PA  CLOUDY    51  50  96 E7        29.87R FOG
BALTIMORE      CLOUDY    55  55 100 E3        29.86S
ANNAPOLIS      CLOUDY    53  51  93 SE5       29.86S
ANDREWS AFB    PTSUNNY   64  57  77 SW9       29.85R
PHILADELPHIA   TSTM      50  50 100 N5        29.93R VSB 3/4
HENDERSON NC   RAIN      58  55  92 S7        29.94R
GREENSBORO     MOCLDY    58  58 100 SW10      29.91R
ROCKY MOUNT    CLOUDY    62  58  86 SW9       29.96R
$$

VAZ100-281300-
MARINE

STATION/POSITION TIME  TEMP    WIND        PRES    WAVE   SWELL
                       AIR SEA DIR/SP/G            HT/PER HT/PER
                 (UTC) (F)     (DEG/KT/KT) (MB)    (FT/S) (FT/S)
CAPE MAY NJ      1136   53 46  150/  8/ 11 1011.7R
LEWES DE         1136   63 45  210/  6/ 10 1011.9R
OCEAN-CITY-INLET 1142   47 45  210/  9/ 11 1013.4R
WACHAPREAGUE VA  1142   55 54  210/  6/  7 1013.0R
THOMAS POINT MD  1200   53 46  170/  7/  8   N/A
GOOSES REEF MD   1200   52 47  170/ 12/ 14 1011.9    1/ 2
COVE POINT MD    1142   52     190/  9/ 10 1012.2R
SOLOMONS ISLAND  1142   60 47  220/  7/  9   N/A
BISHOPS HEAD MD  1142   57 55  180/ 12/ 14 1012.3R
PINEY POINT MD   1142          170/  4/  4   N/A
POTOMAC MD       1200   57 48  210/  8/ 10 1011.1    1
CAMBRIDGE MD     1142   59 47  170/  5/  9 1011.1R
LEWISETTA VA     1142   62 54  220/  9/ 12 1011.6R
RAPPAHANNOCK LGT 1142          170/ 15/ 15 1013.4S
STINGRAY PT      1150   53     180/ 10/ 12 1012.6R
YORK RVR RNG VA  1142   59     220/ 13/ 15 1012.4R
YORKTOWN VA      1142   62 51  220/ 10/ 14 1012.6R
JAMESTOWN VA     1200   62 56  220/  8/ 16   N/A     0
DOMINION TERM VA 1142   58     200/  8/  8 1013.4R
KIPTOPEKE VA     1142      50  160/  6/  7   N/A
CHES BAY BRIDGE  1142   60 49  210/ 12/ 13 1013.3R
CAPE HENRY VA    1142   62     200/  9/ 12   N/A
WILLOUBY STN VA  1142   62     200/ 14/ 15 1014.2R
S CRANEY ISL VA  1142   60     190/  7/  9 1013.3R
CAPE HENRY BUOY  1142      50                N/A     3/ 8   2/11
CAPE CHARLES BUO 1151      48                N/A     3/ 9   2/11
OFFSHORE WE BUOY 1151      51                N/A     3/10   2/11
64NM E OF VA BCH 1150   55 50  210/ 10/ 12 1014.7S   4/ 9   3/ 9
DUCK PIER NC     1142   62 48  190/ 11/ 14 1014.4R
44100 DUCK FRF   1135      51                N/A     4/10   2/11
44056 DUCK FRF   1130      50                N/A     3/10   2/11
OREGON INLET NC  1142   62 58  200/ 10/ 11 1015.3R
HATTERAS NC      1142   66 61  210/  7/ 10 1015.5R
DIAMOND SHLS NC  1150   71 74  240/ 17/ 19 1015.9R   5/10   5/10
CAPE LOOKOUT NC  1100   66     200/  5/  6 1015.4S
$$




USA.gov is the U.S. government's official web portal to all federal, state and local government web resources and services.